Location: Bremen
(53.0793°N, 8.8017°E)
Time: 23:08:07
(UTC+01:00)

Transit 4A - Visible Passes

Search period start: 06 December 2021 00:00
Search period end: 16 December 2021 00:00
Orbit: 866 x 978 km, 66.8° (Epoch: 06 December)

Date Brightness Start Highest point End Pass type
(mag) Time Alt. Az. Time Alt. Az. Time Alt. Az.
06 Dec 10.3 04:41:33 10° S 04:41:33 10° S 04:41:36 10° S visible
06 Dec 9.2 17:58:40 10° SSE 18:02:38 19° ESE 18:02:40 19° ESE visible
06 Dec 8.5 19:42:09 10° SSW 19:46:13 47° SSW 19:46:13 47° SSW visible
06 Dec 10.6 21:29:35 10° W 21:29:47 11° W 21:29:47 11° W visible
07 Dec 8.8 18:06:49 10° SSE 18:11:36 26° ESE 18:12:25 25° E visible
07 Dec 8.4 19:51:26 10° SW 19:55:58 54° WSW 19:55:58 54° WSW visible
07 Dec 10.6 21:39:24 10° W 21:39:31 10° W 21:39:31 10° W visible
08 Dec 8.4 18:15:20 10° S 18:20:39 36° ESE 18:22:04 32° E visible
08 Dec 8.5 20:00:52 10° SW 20:05:37 52° W 20:05:37 52° W visible
09 Dec 8.0 18:24:06 10° SSW 18:29:46 50° ESE 18:31:38 37° ENE visible
09 Dec 8.8 20:10:27 10° WSW 20:15:11 44° WNW 20:15:11 44° WNW visible
10 Dec 9.5 16:50:35 10° SE 16:53:44 15° ESE 16:56:56 10° ENE visible
10 Dec 7.8 18:33:06 10° SSW 18:38:57 67° ESE 18:41:09 40° NE visible
10 Dec 9.1 20:20:08 10° WSW 20:24:41 37° WNW 20:24:41 37° WNW visible
11 Dec 9.2 16:58:21 10° SSE 17:02:39 21° ESE 17:07:03 10° ENE visible
11 Dec 7.8 18:42:16 10° SW 18:48:13 88° SE 18:50:35 40° NE visible
11 Dec 9.4 20:29:54 10° W 20:34:07 31° NW 20:34:07 31° NW visible
12 Dec 8.8 17:06:39 10° S 17:11:39 30° ESE 17:16:27 11° NE visible
12 Dec 8.0 18:51:36 10° SW 18:57:33 72° NW 18:59:58 38° NNE visible
12 Dec 9.6 20:39:44 10° W 20:43:30 26° NW 20:43:30 26° NW visible
13 Dec 8.4 17:15:15 10° S 17:20:44 40° ESE 17:25:46 13° NE visible
13 Dec 8.3 19:01:05 10° WSW 19:06:57 56° NW 19:09:18 36° NNE visible
13 Dec 9.8 20:49:36 10° WNW 20:52:49 23° NW 20:52:49 23° NW visible
14 Dec 8.1 17:24:07 10° SSW 17:29:52 55° ESE 17:35:03 14° NE visible
14 Dec 8.7 19:10:43 10° WSW 19:16:27 45° NW 19:18:35 33° N visible
14 Dec 10.0 20:59:28 10° WNW 21:02:06 20° NW 21:02:06 20° NW visible
15 Dec 7.9 17:33:11 10° SSW 17:39:05 74° SE 17:44:18 15° NE visible
15 Dec 9.0 19:20:25 10° W 19:25:59 37° NNW 19:27:49 31° N visible
15 Dec 10.2 21:09:18 10° WNW 21:11:20 17° NW 21:11:20 17° NW visible
